Flag for Greece Weather past 2 weeks in Preveza, Greece

Now
81 °F

Passing clouds.


Feels Like: 81 °F
Forecast: 73 / 87 °F
Wind: 6 mph from West

Location: Aktion Airport

Current Time: Aug 2, 2014 at 12:40:41 PM

Latest Report: Aug 2, 2014 at 11:50 AM


Visibility: N/A

Pressure: 29.83 "Hg

Humidity: 48%

Dew point: 59 °F

Location of PrevezaLocation

Historic Weather in Preveza — Graph

°F

Preveza temperature yesterday

Maximum temperature yesterday: 84 °F (at 3:50 PM)
Minimum temperature yesterday: 70 °F (at 6:50 AM)
Average temperature yesterday: 78 °F

Past Weeks' High & Low Weather Summary

 TemperatureHumidityPressure
High90 °F (Jul 30, 4:20 PM)100% (Jul 20, 8:50 AM)29.95 "Hg (Jul 20, 8:50 AM)
Low63 °F (Jul 20, 8:50 AM)33% (Jul 27, 1:20 PM)29.74 "Hg (Jul 22, 3:50 PM)
Average79 °F67%29.86 "Hg
* Reported Jul 18 11:20 AM — Aug 2 11:20 AM, Preveza, Weather by CustomWeather, © 2014

Note: Actual official high and low records may vary slightly from our data, if they occured in-between our weather recording intervals... More about our weather records

Advertising

Preveza weather history for previous 24 hours

 ConditionsComfort  
Time TempWeatherWind HumidityBarometerVisibility
11:20 AM
Aug 2
81 °FPassing clouds.5 mph48%29.83 "HgN/A
10:50 AM79 °FPassing clouds.3 mph51%29.83 "HgN/A
10:20 AM77 °FPassing clouds.6 mph57%29.83 "HgN/A
9:50 AM77 °FPassing clouds.6 mph57%29.83 "HgN/A
9:20 AM75 °FPassing clouds.7 mph61%29.83 "HgN/A
8:50 AM75 °FPassing clouds.7 mph61%29.80 "HgN/A
8:20 AM73 °FPassing clouds.6 mph65%29.80 "HgN/A
7:50 AM73 °FPassing clouds.5 mph69%29.80 "HgN/A
7:20 AM70 °FPassing clouds.No wind78%29.80 "HgN/A
6:50 AM68 °FPassing clouds.No wind83%29.80 "HgN/A
6:20 AM68 °FPassing clouds.No wind88%29.80 "HgN/A
5:50 AM68 °FPassing clouds.No wind88%29.80 "HgN/A
4:50 AM70 °FPassing clouds.No wind78%29.77 "HgN/A
3:50 AM72 °FPassing clouds.5 mph78%29.80 "HgN/A
2:50 AM72 °FPassing clouds.9 mph78%29.80 "HgN/A
1:50 AM73 °FPassing clouds.6 mph74%29.80 "HgN/A
12:50 AM73 °FPassing clouds.12 mph74%29.80 "HgN/A
11:50 PM
Aug 1
73 °FPassing clouds.12 mph74%29.80 "HgN/A
10:50 PM73 °FPassing clouds.12 mph74%29.80 "HgN/A
9:50 PM75 °FPassing clouds.14 mph65%29.77 "HgN/A
8:50 PM75 °FScattered clouds.16 mph69%29.77 "HgN/A
8:20 PM77 °FScattered clouds.17 mph61%29.77 "HgN/A
7:50 PM79 °FScattered clouds.17 mph58%29.74 "HgN/A
7:20 PM79 °FScattered clouds.18 mph58%29.74 "HgN/A
6:50 PM79 °FScattered clouds.21 mph58%29.77 "HgN/A
6:20 PM81 °FScattered clouds.18 mph54%29.77 "HgN/A
5:50 PM81 °FScattered clouds.20 mph51%29.74 "HgN/A
5:20 PM81 °FScattered clouds.18 mph54%29.74 "HgN/A
4:50 PM82 °FScattered clouds.17 mph51%29.77 "HgN/A
4:20 PM82 °FScattered clouds.17 mph51%29.77 "HgN/A
3:50 PM84 °FScattered clouds.17 mph51%29.77 "HgN/A
3:20 PM82 °FScattered clouds.18 mph51%29.74 "HgN/A
2:50 PM82 °FScattered clouds.15 mph55%29.74 "HgN/A
2:20 PM82 °FScattered clouds.15 mph51%29.74 "HgN/A
1:50 PM82 °FScattered clouds.13 mph55%29.77 "HgN/A
1:20 PM82 °FScattered clouds.12 mph51%29.77 "HgN/A
12:50 PM82 °FScattered clouds.12 mph51%29.77 "HgN/A
12:20 PM82 °FScattered clouds.12 mph48%29.77 "HgN/A
Weather by CustomWeather, © 2014

See weather overviewHow to use our weather pages